Location: Clermont
(50.2608°N, 4.3172°E)
Time: 09:44:18
(UTC+00:00)

ERBS - Pass Details

Date: 13 August 2020
Orbit: 412 x 420 km, 57.0° (Epoch: 21 September)

Event Time Altitude Azimuth Distance (km) Brightness Sun altitude
Rises 23:00:10 0° 302° (WNW) 2,357 6.7 -24.6°
Reaches altitude 10° 23:02:15 10° 304° (WNW) 1,491 5.6 -24.7°
Enters shadow 23:03:48 25° 306° (NW) 873 4.3 -24.7°
